Terminal Aerodrome Forecast
Issued by NWS Newport/Morehead City, NC

Home | Current Version | Previous Version | Graphics & Text | Print | Product List | Glossary On
Versions: 1 2 3 4 5 6 7 8 9 10 11 12 13 14 15 16 17 18
000
FTUS42 KMHX 300553
TAFEWN
TAF
KEWN 300553Z 3006/3106 21006KT P6SM SKC
     FM301200 22010G18KT P6SM BKN100
     FM301800 25013G20KT 3SM SHRA BKN010 OVC030
     FM302100 26010G18KT P6SM VCSH SCT010 BKN030
     FM310000 27004KT P6SM SKC=

USA.gov is the U.S. government's official web portal to all federal, state and local government web resources and services.